Вернуться в каталог

NOAA 16 DEB

АктивенSSO
NORAD 41164·DEBRIS·🇺🇸 United States

Запущен Sep 21, 2000 с Vandenberg Space Force Base

Loading…

Ближайшие Пролёты (ближайшие 24 часа)

TLE

СвежийSource: Space-Track

Эпоха: Sep 12, 2026, 11:00 UTC

1 41164U 00055CX  26255.45844390  .00003403  00000-0  15404-2 0  9999
2 41164  98.9651 339.6961 0058353 139.7007 220.8516 14.21760132552467

Отслеживайте NOAA 16 DEB в реальном времени с AllMySat

Download on the App Store